| time (UTC) | temp C | wind direction | speed KPH | gust KPH | rain 1hr cm | rain 24hr cm | rain mn cm | humidity % | barometer mb |
| 20260504160233 | 22 | 126 | 12.9 | 12.9 | 0.00 | 0.00 | 0.00 | 41 | 1017.9 |
| 20260504150658 | 20 | 226 | 4.8 | 8.0 | 0.00 | 0.00 | 0.00 | 46 | 1018.3 |
| 20260504150155 | 20 | 106 | 3.2 | 4.8 | 0.00 | 0.00 | 0.00 | 48 | 1018.2 |
| 20260504141124 | 16 | 195 | 4.8 | 6.4 | 0.00 | 0.00 | 0.00 | 58 | 1018.3 |
| 20260504140621 | 15 | 94 | 3.2 | 6.4 | 0.00 | 0.00 | 0.00 | 64 | 1018.5 |
| 20260504140117 | 15 | 100 | 3.2 | 4.8 | 0.00 | 0.00 | 0.00 | 73 | 1018.4 |
| 20260504130545 | 10 | 97 | 1.6 | 3.2 | 0.00 | 0.00 | 0.00 | 90 | 1018.4 |
| 20260504110432 | 5 | 95 | 1.6 | 3.2 | 0.00 | 0.00 | 0.00 | 96 | 1018.2 |
| 20260504100355 | 5 | 105 | 3.2 | 3.2 | 0.00 | 0.00 | 0.00 | 95 | 1017.8 |
| 20260504081748 | 6 | 76 | 0.0 | 3.2 | 0.00 | 0.00 | 0.00 | 92 | 1017.7 |
| 20260504081244 | 6 | 111 | 3.2 | 3.2 | 0.00 | 0.00 | 0.00 | 92 | 1017.9 |
| 20260504080741 | 6 | 77 | 1.6 | 3.2 | 0.00 | 0.00 | 0.00 | 92 | 1017.9 |
| 20260504080237 | 6 | 102 | 1.6 | 3.2 | 0.00 | 0.00 | 0.00 | 92 | 1017.7 |
| 20260504070205 | 7 | 101 | 3.2 | 3.2 | 0.00 | 0.00 | 0.00 | 89 | 1018.2 |
| 20260504060126 | 7 | 93 | 3.2 | 3.2 | 0.00 | 0.00 | 0.00 | 87 | 1018.3 |
| 20260504050554 | 8 | 106 | 3.2 | 3.2 | 0.00 | 0.00 | 0.00 | 82 | 1018.5 |
| 20260504045548 | 8 | 84 | 3.2 | 3.2 | 0.00 | 0.00 | 0.00 | 81 | 1018.3 |
| 20260504045043 | 8 | 91 | 3.2 | 3.2 | 0.00 | 0.00 | 0.00 | 80 | 1018.2 |
| 20260504044540 | 9 | 106 | 3.2 | 4.8 | 0.00 | 0.00 | 0.00 | 78 | 1018.2 |
| 20260504044037 | 9 | 95 | 1.6 | 1.6 | 0.00 | 0.00 | 0.00 | 78 | 1018.3 |
| 20260504043534 | 9 | 27 | 0.0 | 3.2 | 0.00 | 0.00 | 0.00 | 78 | 1018.3 |
| 20260504043032 | 9 | 49 | 0.0 | 3.2 | 0.00 | 0.00 | 0.00 | 78 | 1018.3 |
| 20260504042529 | 9 | 71 | 1.6 | 3.2 | 0.00 | 0.00 | 0.00 | 78 | 1018.4 |
| 20260504042026 | 9 | 91 | 3.2 | 3.2 | 0.00 | 0.00 | 0.00 | 78 | 1018.3 |
| 20260504041521 | 9 | 93 | 3.2 | 3.2 | 0.00 | 0.00 | 0.00 | 77 | 1018.4 |
| 20260504041017 | 9 | 102 | 0.0 | 1.6 | 0.00 | 0.00 | 0.00 | 77 | 1018.6 |
| 20260504040515 | 9 | 83 | 0.0 | 3.2 | 0.00 | 0.00 | 0.00 | 78 | 1018.5 |
| 20260504040012 | 9 | 98 | 3.2 | 3.2 | 0.00 | 0.00 | 0.00 | 79 | 1018.4 |
| 20260504035509 | 9 | 87 | 1.6 | 3.2 | 0.00 | 0.00 | 0.00 | 78 | 1018.4 |
| 20260504035005 | 10 | 100 | 1.6 | 3.2 | 0.00 | 0.00 | 0.00 | 77 | 1018.4 |
| 20260504034503 | 10 | 101 | 3.2 | 3.2 | 0.00 | 0.00 | 0.00 | 76 | 1018.4 |
| 20260504034000 | 10 | 111 | 3.2 | 3.2 | 0.00 | 0.00 | 0.00 | 74 | 1018.5 |
| 20260504033457 | 10 | 98 | 3.2 | 3.2 | 0.00 | 0.00 | 0.00 | 73 | 1018.6 |
| 20260504032955 | 10 | 93 | 3.2 | 3.2 | 0.00 | 0.00 | 0.00 | 72 | 1018.7 |
| 20260504032451 | 10 | 72 | 0.0 | 3.2 | 0.00 | 0.00 | 0.00 | 73 | 1018.7 |
| 20260504031948 | 10 | 41 | 1.6 | 3.2 | 0.00 | 0.00 | 0.00 | 73 | 1018.4 |
| 20260504031445 | 10 | 48 | 1.6 | 3.2 | 0.00 | 0.00 | 0.00 | 73 | 1018.5 |
| 20260504030941 | 10 | 81 | 1.6 | 3.2 | 0.00 | 0.00 | 0.00 | 72 | 1018.6 |
| 20260504030439 | 10 | 85 | 0.0 | 1.6 | 0.00 | 0.00 | 0.00 | 72 | 1018.5 |
| 20260504025934 | 10 | 33 | 3.2 | 3.2 | 0.00 | 0.00 | 0.00 | 71 | 1018.6 |
| 20260504025431 | 10 | 104 | 0.0 | 1.6 | 0.00 | 0.00 | 0.00 | 70 | 1018.4 |
| 20260504024929 | 10 | 42 | 1.6 | 3.2 | 0.00 | 0.00 | 0.00 | 71 | 1018.6 |
| 20260504024426 | 11 | 94 | 3.2 | 3.2 | 0.00 | 0.00 | 0.00 | 70 | 1018.7 |
| 20260504023922 | 11 | 92 | 3.2 | 3.2 | 0.00 | 0.00 | 0.00 | 69 | 1018.5 |
| 20260504023419 | 11 | 22 | 0.0 | 3.2 | 0.00 | 0.00 | 0.00 | 68 | 1018.5 |
| 20260504022914 | 11 | 117 | 1.6 | 3.2 | 0.00 | 0.00 | 0.00 | 66 | 1018.5 |
| 20260504022411 | 11 | 102 | 1.6 | 1.6 | 0.00 | 0.00 | 0.00 | 66 | 1018.4 |
| 20260504021908 | 11 | 49 | 3.2 | 3.2 | 0.00 | 0.00 | 0.00 | 65 | 1018.3 |
| 20260504021405 | 11 | 97 | 1.6 | 3.2 | 0.00 | 0.00 | 0.00 | 65 | 1018.2 |
| 20260504020903 | 12 | 56 | 0.0 | 3.2 | 0.00 | 0.00 | 0.00 | 65 | 1018.3 |
| 20260504020359 | 12 | 47 | 1.6 | 3.2 | 0.00 | 0.00 | 0.00 | 64 | 1018.1 |
| 20260504015855 | 12 | 71 | 0.0 | 1.6 | 0.00 | 0.00 | 0.00 | 62 | 1018.0 |
| 20260504015351 | 12 | 77 | 1.6 | 3.2 | 0.00 | 0.00 | 0.00 | 62 | 1018.0 |
| 20260504014847 | 12 | 47 | 0.0 | 3.2 | 0.00 | 0.00 | 0.00 | 61 | 1017.9 |
| 20260504014343 | 12 | 40 | 0.0 | 3.2 | 0.00 | 0.00 | 0.00 | 60 | 1017.8 |
| 20260504013841 | 12 | 93 | 0.0 | 1.6 | 0.00 | 0.00 | 0.00 | 60 | 1017.8 |
| 20260504013339 | 13 | 55 | 1.6 | 3.2 | 0.00 | 0.00 | 0.00 | 58 | 1017.5 |
| 20260504012835 | 13 | 60 | 1.6 | 3.2 | 0.00 | 0.00 | 0.00 | 57 | 1017.6 |
| 20260504012333 | 13 | 50 | 0.0 | 3.2 | 0.00 | 0.00 | 0.00 | 58 | 1017.5 |
| 20260504011831 | 13 | 39 | 3.2 | 3.2 | 0.00 | 0.00 | 0.00 | 56 | 1017.5 |
| 20260504011327 | 13 | 79 | 0.0 | 3.2 | 0.00 | 0.00 | 0.00 | 57 | 1017.7 |
| 20260504010823 | 13 | 37 | 0.0 | 1.6 | 0.00 | 0.00 | 0.00 | 56 | 1017.6 |
| 20260504010319 | 13 | 61 | 0.0 | 1.6 | 0.00 | 0.00 | 0.00 | 56 | 1017.5 |
| 20260504005815 | 13 | 64 | 0.0 | 3.2 | 0.00 | 0.00 | 0.00 | 55 | 1017.5 |
| 20260504005312 | 14 | 45 | 1.6 | 3.2 | 0.00 | 0.00 | 0.00 | 56 | 1017.5 |
| 20260504004810 | 14 | 34 | 1.6 | 3.2 | 0.00 | 0.00 | 0.00 | 56 | 1017.4 |
| 20260504004308 | 14 | 23 | 0.0 | 3.2 | 0.00 | 0.00 | 0.00 | 55 | 1017.2 |
| 20260504003803 | 15 | 57 | 0.0 | 1.6 | 0.00 | 0.00 | 0.00 | 53 | 1017.3 |
| 20260504003301 | 15 | 0 | 0.0 | 3.2 | 0.00 | 0.00 | 0.00 | 51 | 1017.1 |
| 20260504002757 | 15 | 55 | 0.0 | 3.2 | 0.00 | 0.00 | 0.00 | 52 | 1017.3 |
| 20260504002254 | 15 | 55 | 3.2 | 3.2 | 0.00 | 0.00 | 0.00 | 53 | 1017.2 |
| 20260504001752 | 15 | 55 | 1.6 | 3.2 | 0.00 | 0.00 | 0.00 | 53 | 1017.2 |
| 20260504001249 | 16 | 33 | 3.2 | 3.2 | 0.00 | 0.00 | 0.00 | 51 | 1017.1 |
| 20260504000746 | 16 | 9 | 1.6 | 3.2 | 0.00 | 0.00 | 0.00 | 52 | 1017.1 |
| 20260504000242 | 16 | 48 | 3.2 | 3.2 | 0.00 | 0.00 | 0.00 | 50 | 1017.0 |
| 20260503235741 | 16 | 57 | 3.2 | 4.8 | 0.00 | 0.00 | 0.00 | 48 | 1017.0 |
| 20260503235237 | 17 | 22 | 0.0 | 3.2 | 0.00 | 0.00 | 0.00 | 46 | 1016.9 |
| 20260503234735 | 17 | 29 | 1.6 | 3.2 | 0.00 | 0.00 | 0.00 | 47 | 1016.9 |
| 20260503234233 | 17 | 124 | 0.0 | 3.2 | 0.00 | 0.00 | 0.00 | 45 | 1016.9 |
| 20260503233730 | 17 | 143 | 0.0 | 3.2 | 0.00 | 0.00 | 0.00 | 48 | 1016.9 |
| 20260503233225 | 18 | 49 | 3.2 | 6.4 | 0.00 | 0.00 | 0.00 | 41 | 1017.0 |
| 20260503232723 | 18 | 63 | 3.2 | 3.2 | 0.00 | 0.00 | 0.00 | 45 | 1016.9 |
| 20260503232220 | 18 | 133 | 1.6 | 4.8 | 0.00 | 0.00 | 0.00 | 41 | 1017.0 |
| 20260503231718 | 18 | 60 | 4.8 | 4.8 | 0.00 | 0.00 | 0.00 | 44 | 1017.1 |
| 20260503231214 | 18 | 33 | 3.2 | 3.2 | 0.00 | 0.00 | 0.00 | 41 | 1017.1 |
| 20260503230711 | 18 | 111 | 0.0 | 4.8 | 0.00 | 0.00 | 0.00 | 40 | 1017.1 |
| 20260503230208 | 19 | 119 | 6.4 | 6.4 | 0.00 | 0.00 | 0.00 | 39 | 1017.1 |
| 20260503225705 | 19 | 66 | 3.2 | 4.8 | 0.00 | 0.00 | 0.00 | 36 | 1017.1 |
| 20260503225205 | 20 | 23 | 1.6 | 6.4 | 0.00 | 0.00 | 0.00 | 35 | 1017.2 |
| 20260503224703 | 20 | 179 | 4.8 | 4.8 | 0.00 | 0.00 | 0.00 | 34 | 1017.1 |
| 20260503224200 | 20 | 333 | 0.0 | 6.4 | 0.00 | 0.00 | 0.00 | 34 | 1017.1 |
| 20260503223658 | 20 | 100 | 6.4 | 6.4 | 0.00 | 0.00 | 0.00 | 38 | 1017.1 |
| 20260503223155 | 20 | 29 | 0.0 | 6.4 | 0.00 | 0.00 | 0.00 | 35 | 1017.0 |
| 20260503222652 | 21 | 49 | 3.2 | 6.4 | 0.00 | 0.00 | 0.00 | 35 | 1017.1 |
| 20260503222149 | 21 | 287 | 1.6 | 8.0 | 0.00 | 0.00 | 0.00 | 33 | 1017.1 |
| 20260503221648 | 21 | 91 | 3.2 | 9.7 | 0.00 | 0.00 | 0.00 | 33 | 1017.0 |
| 20260503221145 | 21 | 132 | 3.2 | 4.8 | 0.00 | 0.00 | 0.00 | 35 | 1017.1 |
| 20260503220641 | 21 | 72 | 3.2 | 8.0 | 0.00 | 0.00 | 0.00 | 36 | 1017.0 |
| 20260503220138 | 21 | 126 | 4.8 | 4.8 | 0.00 | 0.00 | 0.00 | 34 | 1017.0 |
| 20260503215635 | 21 | 82 | 4.8 | 8.0 | 0.00 | 0.00 | 0.00 | 35 | 1017.1 |
| 20260503215132 | 21 | 67 | 6.4 | 9.7 | 0.00 | 0.00 | 0.00 | 34 | 1017.1 |
| 20260503214630 | 21 | 135 | 0.0 | 6.4 | 0.00 | 0.00 | 0.00 | 34 | 1017.3 |
| 20260503214126 | 21 | 130 | 0.0 | 16.1 | 0.00 | 0.00 | 0.00 | 33 | 1017.2 |
| 20260503213626 | 21 | 117 | 6.4 | 6.4 | 0.00 | 0.00 | 0.00 | 32 | 1017.2 |
| 20260503213122 | 21 | 64 | 4.8 | 12.9 | 0.00 | 0.00 | 0.00 | 33 | 1017.2 |
| 20260503212619 | 21 | 52 | 6.4 | 6.4 | 0.00 | 0.00 | 0.00 | 34 | 1017.4 |
| 20260503212117 | 21 | 62 | 3.2 | 6.4 | 0.00 | 0.00 | 0.00 | 34 | 1017.4 |
| 20260503211614 | 21 | 165 | 0.0 | 8.0 | 0.00 | 0.00 | 0.00 | 34 | 1017.2 |
| 20260503211109 | 21 | 95 | 3.2 | 9.7 | 0.00 | 0.00 | 0.00 | 33 | 1017.6 |
| 20260503210607 | 21 | 13 | 3.2 | 6.4 | 0.00 | 0.00 | 0.00 | 34 | 1017.4 |
| 20260503205559 | 21 | 89 | 3.2 | 8.0 | 0.00 | 0.00 | 0.00 | 33 | 1017.6 |
| 20260503205055 | 22 | 76 | 4.8 | 11.3 | 0.00 | 0.00 | 0.00 | 32 | 1017.5 |
| 20260503204552 | 21 | 224 | 6.4 | 8.0 | 0.00 | 0.00 | 0.00 | 33 | 1017.7 |
| 20260503204049 | 22 | 6 | 3.2 | 8.0 | 0.00 | 0.00 | 0.00 | 36 | 1017.4 |
| 20260503203546 | 21 | 10 | 3.2 | 4.8 | 0.00 | 0.00 | 0.00 | 36 | 1017.6 |
| 20260503203043 | 21 | 63 | 6.4 | 6.4 | 0.00 | 0.00 | 0.00 | 36 | 1017.8 |
| 20260503202541 | 21 | 237 | 8.0 | 8.0 | 0.00 | 0.00 | 0.00 | 35 | 1018.0 |
| 20260503202039 | 21 | 83 | 6.4 | 9.7 | 0.00 | 0.00 | 0.00 | 35 | 1017.9 |
| 20260503201537 | 21 | 44 | 8.0 | 9.7 | 0.00 | 0.00 | 0.00 | 36 | 1018.0 |
| 20260503201034 | 21 | 133 | 6.4 | 12.9 | 0.00 | 0.00 | 0.00 | 35 | 1018.1 |
| 20260503200530 | 21 | 174 | 0.0 | 6.4 | 0.00 | 0.00 | 0.00 | 36 | 1018.2 |
| 20260503200027 | 21 | 98 | 3.2 | 8.0 | 0.00 | 0.00 | 0.00 | 37 | 1018.1 |
| 20260503195524 | 21 | 105 | 4.8 | 6.4 | 0.00 | 0.00 | 0.00 | 33 | 1018.3 |
| 20260503195021 | 21 | 190 | 3.2 | 4.8 | 0.00 | 0.00 | 0.00 | 33 | 1018.4 |
| 20260503194518 | 21 | 330 | 1.6 | 4.8 | 0.00 | 0.00 | 0.00 | 38 | 1018.4 |
| 20260503194017 | 21 | 105 | 3.2 | 6.4 | 0.00 | 0.00 | 0.00 | 36 | 1018.4 |
| 20260503193515 | 21 | 66 | 3.2 | 11.3 | 0.00 | 0.00 | 0.00 | 33 | 1018.5 |
| 20260503193010 | 21 | 64 | 3.2 | 16.1 | 0.00 | 0.00 | 0.00 | 32 | 1018.7 |
| 20260503192506 | 21 | 30 | 6.4 | 6.4 | 0.00 | 0.00 | 0.00 | 35 | 1018.6 |
| 20260503192001 | 21 | 105 | 4.8 | 4.8 | 0.00 | 0.00 | 0.00 | 38 | 1019.0 |
| 20260503191459 | 21 | 222 | 1.6 | 6.4 | 0.00 | 0.00 | 0.00 | 37 | 1018.9 |
| 20260503190955 | 21 | 235 | 4.8 | 14.5 | 0.00 | 0.00 | 0.00 | 34 | 1019.1 |
| 20260503190453 | 21 | 102 | 3.2 | 6.4 | 0.00 | 0.00 | 0.00 | 34 | 1019.1 |
| 20260503185950 | 20 | 101 | 4.8 | 6.4 | 0.00 | 0.00 | 0.00 | 37 | 1019.1 |
| 20260503185446 | 20 | 14 | 1.6 | 11.3 | 0.00 | 0.00 | 0.00 | 39 | 1019.1 |
| 20260503184946 | 21 | 85 | 3.2 | 6.4 | 0.00 | 0.00 | 0.00 | 38 | 1019.2 |
| 20260503184442 | 20 | 86 | 4.8 | 9.7 | 0.00 | 0.00 | 0.00 | 42 | 1019.2 |
| 20260503183938 | 20 | 355 | 3.2 | 6.4 | 0.00 | 0.00 | 0.00 | 42 | 1019.2 |
| 20260503183435 | 20 | 136 | 3.2 | 11.3 | 0.00 | 0.00 | 0.00 | 38 | 1019.2 |
| 20260503182932 | 20 | 101 | 9.7 | 9.7 | 0.00 | 0.00 | 0.00 | 38 | 1019.4 |
| 20260503182431 | 20 | 76 | 0.0 | 6.4 | 0.00 | 0.00 | 0.00 | 41 | 1019.5 |
| 20260503181928 | 20 | 304 | 0.0 | 6.4 | 0.00 | 0.00 | 0.00 | 38 | 1019.5 |
| 20260503181425 | 20 | 92 | 4.8 | 12.9 | 0.00 | 0.00 | 0.00 | 38 | 1019.4 |
| 20260503180921 | 20 | 170 | 6.4 | 9.7 | 0.00 | 0.00 | 0.00 | 40 | 1019.4 |
| 20260503180420 | 20 | 190 | 6.4 | 11.3 | 0.00 | 0.00 | 0.00 | 38 | 1019.6 |
| 20260503175916 | 20 | 70 | 3.2 | 8.0 | 0.00 | 0.00 | 0.00 | 41 | 1019.7 |
| 20260503175414 | 19 | 282 | 0.0 | 6.4 | 0.00 | 0.00 | 0.00 | 40 | 1019.6 |
| 20260503174909 | 18 | 141 | 4.8 | 6.4 | 0.00 | 0.00 | 0.00 | 38 | 1019.6 |
| 20260503174408 | 19 | 55 | 1.6 | 11.3 | 0.00 | 0.00 | 0.00 | 42 | 1019.8 |
| 20260503173902 | 19 | 102 | 4.8 | 8.0 | 0.00 | 0.00 | 0.00 | 39 | 1019.8 |
| 20260503173359 | 18 | 290 | 0.0 | 4.8 | 0.00 | 0.00 | 0.00 | 38 | 1019.8 |
| 20260503172855 | 18 | 175 | 3.2 | 14.5 | 0.00 | 0.00 | 0.00 | 36 | 1019.9 |
| 20260503172353 | 19 | 181 | 6.4 | 9.7 | 0.00 | 0.00 | 0.00 | 37 | 1020.0 |
| 20260503171849 | 19 | 99 | 4.8 | 9.7 | 0.00 | 0.00 | 0.00 | 39 | 1020.0 |
| 20260503171346 | 18 | 45 | 0.0 | 3.2 | 0.00 | 0.00 | 0.00 | 40 | 1020.0 |
| 20260503170844 | 18 | 174 | 3.2 | 6.4 | 0.00 | 0.00 | 0.00 | 39 | 1020.0 |
| 20260503170340 | 18 | 33 | 3.2 | 8.0 | 0.00 | 0.00 | 0.00 | 44 | 1020.3 |